TimeEDT,TemperatureF,Dew PointF,Humidity,Sea Level PressureIn,VisibilityMPH,Wind Direction,Wind SpeedMPH,Gust SpeedMPH,PrecipitationIn,Events,Conditions,WindDirDegrees,DateUTC
12:55 AM,48.9,43.0,80,30.14,10.0,WNW,4.6,-,N/A,,Clear,300,2011-10-03 04:55:00
1:55 AM,45.0,41.0,86,30.16,10.0,Calm,Calm,-,N/A,,Clear,0,2011-10-03 05:55:00
2:55 AM,48.9,42.1,77,30.17,10.0,Calm,Calm,-,N/A,,Clear,0,2011-10-03 06:55:00
3:55 AM,45.0,41.0,86,30.17,10.0,NNW,3.5,-,N/A,,Clear,330,2011-10-03 07:55:00
4:55 AM,46.9,42.1,83,30.18,10.0,North,4.6,-,N/A,,Clear,350,2011-10-03 08:55:00
5:55 AM,48.0,41.0,77,30.19,10.0,North,4.6,-,N/A,,Clear,360,2011-10-03 09:55:00
6:55 AM,46.9,39.9,77,30.21,10.0,Calm,Calm,-,N/A,,Clear,0,2011-10-03 10:55:00
7:55 AM,46.9,41.0,80,30.23,10.0,Calm,Calm,-,N/A,,Clear,0,2011-10-03 11:55:00
8:55 AM,53.1,44.1,71,30.25,10.0,NNW,3.5,-,N/A,,Clear,330,2011-10-03 12:55:00
9:55 AM,55.9,41.0,57,30.25,10.0,North,4.6,-,N/A,,Clear,10,2011-10-03 13:55:00
10:55 AM,59.0,39.9,49,30.25,10.0,NNE,6.9,-,N/A,,Clear,20,2011-10-03 14:55:00
11:55 AM,61.0,41.0,48,30.25,10.0,ENE,4.6,-,N/A,,Clear,70,2011-10-03 15:55:00
12:55 PM,64.0,41.0,43,30.24,10.0,ENE,5.8,-,N/A,,Clear,60,2011-10-03 16:55:00
1:00 PM,-9999,-9999,N/A,-9999,-9999.0,North,-9999.0,-,N/A,,Unknown,0,2011-10-03 17:00:00
1:55 PM,66.0,41.0,40,30.22,10.0,ENE,3.5,-,N/A,,Clear,70,2011-10-03 17:55:00
2:55 PM,69.1,41.0,36,30.20,10.0,Calm,Calm,-,N/A,,Clear,0,2011-10-03 18:55:00
3:55 PM,64.9,46.9,52,30.21,10.0,West,9.2,-,N/A,,Clear,260,2011-10-03 19:55:00
4:55 PM,64.0,46.9,54,30.19,10.0,WNW,6.9,-,N/A,,Clear,290,2011-10-03 20:55:00
5:55 PM,63.0,46.0,54,30.19,10.0,WNW,10.4,-,N/A,,Clear,300,2011-10-03 21:55:00
6:55 PM,57.9,46.0,65,30.20,10.0,WNW,6.9,-,N/A,,Clear,300,2011-10-03 22:55:00
7:55 PM,55.0,45.0,69,30.20,10.0,WNW,4.6,-,N/A,,Clear,300,2011-10-03 23:55:00
8:55 PM,53.1,44.1,71,30.20,10.0,Calm,Calm,-,N/A,,Clear,0,2011-10-04 00:55:00
9:55 PM,50.0,43.0,77,30.22,10.0,Calm,Calm,-,N/A,,Clear,0,2011-10-04 01:55:00
10:55 PM,48.0,44.1,86,30.23,10.0,Calm,Calm,-,N/A,,Clear,0,2011-10-04 02:55:00
11:55 PM,46.9,43.0,86,30.24,10.0,Calm,Calm,-,N/A,,Clear,0,2011-10-04 03:55:00